This is the latest recevied weather packets stored in our database for station/object N9GKE-1. If no packets are shown the sender has not sent any weather packets the latest 10 day(s).
| Time | Temp. | Humidity | Pressure | Rain* | Wind** | Luminosity | Snow |
|---|---|---|---|---|---|---|---|
| 1777487578 | 15.56° C | 62% | 1012.4 hPa | 0 mm | - | - | - |
| 1777487351 | 15.56° C | 64% | 1012.4 hPa | 0 mm | - | - | - |
| 1777486979 | 15.56° C | 63% | 1012.4 hPa | 0 mm | - | - | - |
| 1777486377 | 15.56° C | 64% | 1012.3 hPa | 0 mm | - | - | - |
| 1777486149 | 15.56° C | 65% | 1012.2 hPa | 0 mm | - | - | - |
| 1777485778 | 15° C | 67% | 1012.3 hPa | 0 mm | - | - | - |
| 1777485553 | 15° C | 66% | 1012.3 hPa | 0 mm | - | - | - |
| 1777485178 | 15.56° C | 64% | 1012.3 hPa | 0 mm | - | - | - |
| 1777484950 | 15.56° C | 63% | 1012.3 hPa | 0 mm | - | - | - |
| 1777484577 | 16.11° C | 61% | 1012.2 hPa | 0 mm | - | - | - |
| 1777484350 | 16.67° C | 62% | 1012.1 hPa | 0 mm | - | - | - |
| 1777483978 | 16.67° C | 60% | 1012.1 hPa | 0 mm | - | - | - |
| 1777483750 | 16.67° C | 59% | 1012 hPa | 0 mm | - | - | - |
| 1777483377 | 16.67° C | 62% | 1012 hPa | 0 mm | - | - | - |
| 1777483150 | 16.67° C | 64% | 1012.1 hPa | 0 mm | - | - | - |
| 1777482777 | 16.11° C | 62% | 1012.1 hPa | 0 mm | - | - | - |
| 1777482673 | 16.67° C | 66% | 1012.1 hPa | 0 mm | - | - | - |
| 1777482177 | 16.11° C | 67% | 1012.2 hPa | 0 mm | - | - | - |
| 1777481949 | 16.11° C | 66% | 1012.3 hPa | 0 mm | - | - | - |
| 1777481577 | 15.56° C | 67% | 1012.3 hPa | 0 mm | - | - | - |
| 1777481351 | 15.56° C | 66% | 1012.3 hPa | 0 mm | - | - | - |
| 1777480977 | 16.11° C | 65% | 1012.3 hPa | 0 mm | - | - | - |
| 1777480750 | 16.11° C | 67% | 1012.3 hPa | 0 mm | - | - | - |
| 1777480378 | 16.11° C | 67% | 1012.4 hPa | 0 mm | - | - | - |
| 1777480150 | 16.11° C | 66% | 1012.3 hPa | 0 mm | - | - | - |
* Rain latest hour (hover to see other rain measurements)
** Current wind speed in m/s (hover to see current wind gust speed)